When you browse on this site, cookies collect data to enhance your experience and personalize the content and advertising you see.
Visit our Privacy Policy to learn more. By continuing to use the site, you agree to this use of cookies and data.
  • In Latvia
  • List of Countries
  • For 7 days
  • Water Temperature
  • Satellite Maps
  • Weather Map
  • Weather Widgets
  • user-avatar
    Login

    Hourly Weather Barra

    Today, 15 July, Monday

    Time Temperature Precipitation Wind Pressure Humidity
    00:00 +17°C° 0 mm 4 mps 753 mmHg 82%
    01:00 +17°C° 0 mm 4 mps 753 mmHg 81%
    02:00 +15°C° 0 mm 4 mps 752 mmHg 82%
    03:00 +14°C° 0 mm 4 mps 752 mmHg 82%
    04:00 +14°C° 0 mm 4 mps 752 mmHg 83%
    05:00 +13°C° 0 mm 4 mps 752 mmHg 81%
    06:00 +13°C° 0 mm 4 mps 753 mmHg 78%
    07:00 +12°C° 0 mm 4 mps 753 mmHg 75%
    08:00 +14°C° 0 mm 4 mps 753 mmHg 65%
    09:00 +17°C° 0 mm 4 mps 754 mmHg 55%
    10:00 +19°C° 0 mm 4 mps 754 mmHg 46%
    11:00 +20°C° 0 mm 4 mps 753 mmHg 42%
    12:00 +21°C° 0 mm 4 mps 753 mmHg 39%
    13:00 +21°C° 0 mm 4 mps 752 mmHg 35%
    14:00 +21°C° 0 mm 4 mps 752 mmHg 36%
    15:00 +21°C° 0 mm 4 mps 752 mmHg 38%
    16:00 +21°C° 0 mm 3 mps 752 mmHg 41%
    17:00 +19°C° 0 mm 3 mps 752 mmHg 46%
    18:00 +17°C° 0 mm 2 mps 752 mmHg 52%
    19:00 +15°C° 0 mm 2 mps 752 mmHg 57%
    20:00 +15°C° 0 mm 2 mps 752 mmHg 59%
    21:00 +14°C° 0 mm 2 mps 753 mmHg 60%
    22:00 +13°C° 0 mm 3 mps 753 mmHg 57%
    23:00 +12°C° 0 mm 3 mps 753 mmHg 57%

    Tomorrow, 16 July, Tuesday

    Time Temperature Precipitation Wind Pressure Humidity
    00:00 +12°C° 0 mm 3 mps 752 mmHg 57%
    01:00 +11°C° 0 mm 3 mps 752 mmHg 56%
    02:00 +11°C° 0 mm 3 mps 752 mmHg 56%
    03:00 +10°C° 0 mm 3 mps 752 mmHg 55%
    04:00 +10°C° 0 mm 3 mps 751 mmHg 54%
    05:00 +10°C° 0 mm 3 mps 752 mmHg 54%
    06:00 +10°C° 0 mm 3 mps 752 mmHg 54%
    07:00 +9°C° 0 mm 3 mps 753 mmHg 54%
    08:00 +12°C° 0 mm 3 mps 753 mmHg 50%
    09:00 +16°C° 0 mm 3 mps 753 mmHg 46%
    10:00 +19°C° 0 mm 3 mps 753 mmHg 42%
    11:00 +19°C° 0 mm 3 mps 752 mmHg 41%
    12:00 +20°C° 0 mm 3 mps 752 mmHg 41%
    13:00 +20°C° 0 mm 4 mps 751 mmHg 40%
    14:00 +20°C° 0 mm 3 mps 751 mmHg 43%
    15:00 +20°C° 0 mm 3 mps 751 mmHg 45%
    16:00 +19°C° 0 mm 3 mps 750 mmHg 47%
    17:00 +17°C° 0 mm 3 mps 751 mmHg 56%
    18:00 +16°C° 0 mm 2 mps 752 mmHg 64%
    19:00 +14°C° 0 mm 2 mps 752 mmHg 72%
    20:00 +13°C° 0 mm 2 mps 752 mmHg 73%
    21:00 +13°C° 0 mm 2 mps 753 mmHg 74%
    22:00 +13°C° 0 mm 2 mps 753 mmHg 75%
    23:00 +12°C° 0 mm 2 mps 753 mmHg 75%

    Day after tomorrow, 17 July, Wednesday

    Time Temperature Precipitation Wind Pressure Humidity
    00:00 +12°C° 0 mm 2 mps 752 mmHg 75%
    01:00 +12°C° 0 mm 2 mps 752 mmHg 75%
    02:00 +12°C° 0 mm 2 mps 752 mmHg 75%
    03:00 +12°C° 0 mm 2 mps 752 mmHg 75%
    04:00 +12°C° 0 mm 2 mps 752 mmHg 76%
    05:00 +12°C° 0 mm 2 mps 752 mmHg 77%
    06:00 +12°C° 0 mm 2 mps 752 mmHg 78%
    07:00 +12°C° 0 mm 2 mps 752 mmHg 79%
    08:00 +14°C° 0 mm 2 mps 753 mmHg 74%
    09:00 +17°C° 0 mm 2 mps 753 mmHg 69%
    10:00 +19°C° 0 mm 2 mps 753 mmHg 63%
    11:00 +20°C° 0 mm 3 mps 752 mmHg 60%
    12:00 +21°C° 0 mm 3 mps 751 mmHg 56%
    13:00 +22°C° 0 mm 3 mps 751 mmHg 52%
    14:00 +21°C° 0 mm 3 mps 750 mmHg 54%
    15:00 +21°C° 0 mm 3 mps 750 mmHg 55%
    16:00 +21°C° 0 mm 4 mps 750 mmHg 57%
    17:00 +19°C° 0 mm 3 mps 751 mmHg 64%
    18:00 +18°C° 0 mm 3 mps 751 mmHg 70%
    19:00 +16°C° 0 mm 2 mps 751 mmHg 77%
    20:00 +16°C° 0 mm 2 mps 752 mmHg 79%
    21:00 +15°C° 0 mm 2 mps 752 mmHg 81%
    22:00 +15°C° 0 mm 2 mps 752 mmHg 83%
    23:00 +15°C° 0 mm 2 mps 752 mmHg 85%

    18 July, Thursday

    Time Temperature Precipitation Wind Pressure Humidity
    00:00 +15°C° 0 mm 2 mps 752 mmHg 86%
    01:00 +14°C° 0 mm 2 mps 751 mmHg 88%
    02:00 +16°C° 0 mm 2 mps 751 mmHg 89%
    03:00 +16°C° 0 mm 3 mps 751 mmHg 88%
    04:00 +17°C° 0 mm 3 mps 751 mmHg 87%
    05:00 +16°C° 0 mm 3 mps 752 mmHg 89%
    06:00 +16°C° 0 mm 3 mps 752 mmHg 90%
    07:00 +16°C° 0 mm 3 mps 752 mmHg 92%
    08:00 +18°C° 0 mm 4 mps 752 mmHg 83%
    09:00 +19°C° 0 mm 4 mps 753 mmHg 75%
    10:00 +21°C° 0 mm 4 mps 753 mmHg 66%
    11:00 +21°C° 0 mm 4 mps 752 mmHg 61%
    12:00 +22°C° 0 mm 4 mps 752 mmHg 57%
    13:00 +22°C° 0 mm 4 mps 751 mmHg 52%
    14:00 +22°C° 0 mm 4 mps 751 mmHg 53%
    15:00 +21°C° 0 mm 4 mps 750 mmHg 55%
    16:00 +21°C° 0 mm 4 mps 750 mmHg 56%
    17:00 +19°C° 0 mm 3 mps 750 mmHg 63%
    18:00 +18°C° 0 mm 2 mps 751 mmHg 70%
    19:00 +16°C° 0 mm 2 mps 751 mmHg 76%
    20:00 +15°C° 0 mm 2 mps 752 mmHg 78%
    21:00 +15°C° 0 mm 2 mps 752 mmHg 79%
    22:00 +15°C° 0 mm 2 mps 752 mmHg 81%
    23:00 +14°C° 0 mm 2 mps 752 mmHg 82%

    19 July, Friday

    Time Temperature Precipitation Wind Pressure Humidity
    00:00 +14°C° 0 mm 2 mps 752 mmHg 82%
    01:00 +14°C° 0 mm 2 mps 752 mmHg 83%
    02:00 +14°C° 0 mm 2 mps 752 mmHg 84%
    03:00 +13°C° 0 mm 3 mps 752 mmHg 85%
    04:00 +12°C° 0 mm 3 mps 751 mmHg 86%
    05:00 +12°C° 0 mm 3 mps 752 mmHg 87%
    06:00 +12°C° 0 mm 3 mps 752 mmHg 89%
    07:00 +12°C° 0 mm 3 mps 753 mmHg 90%
    08:00 +14°C° 0 mm 3 mps 753 mmHg 80%
    09:00 +18°C° 0 mm 3 mps 753 mmHg 70%
    10:00 +20°C° 0 mm 3 mps 753 mmHg 60%
    11:00 +20°C° 0 mm 4 mps 753 mmHg 58%
    12:00 +21°C° 0 mm 4 mps 752 mmHg 57%
    13:00 +21°C° 0 mm 4 mps 752 mmHg 55%
    14:00 +21°C° 0 mm 4 mps 752 mmHg 56%
    15:00 +20°C° 0 mm 4 mps 751 mmHg 56%
    16:00 +20°C° 0 mm 4 mps 751 mmHg 57%
    17:00 +18°C° 0 mm 3 mps 752 mmHg 64%
    18:00 +17°C° 0 mm 3 mps 752 mmHg 71%
    19:00 +15°C° 0 mm 2 mps 752 mmHg 78%
    20:00 +15°C° 0 mm 2 mps 753 mmHg 79%
    21:00 +14°C° 0 mm 2 mps 753 mmHg 80%
    22:00 +14°C° 0 mm 2 mps 753 mmHg 81%
    23:00 +14°C° 0 mm 2 mps 753 mmHg 81%

    20 July, Saturday

    Time Temperature Precipitation Wind Pressure Humidity
    00:00 +14°C° 0 mm 2 mps 753 mmHg 81%
    01:00 +14°C° 0 mm 2 mps 752 mmHg 81%
    02:00 +14°C° 0 mm 2 mps 752 mmHg 81%
    03:00 +15°C° 0 mm 2 mps 752 mmHg 82%
    04:00 +15°C° 0 mm 2 mps 752 mmHg 83%
    05:00 +15°C° 0 mm 2 mps 752 mmHg 83%
    06:00 +16°C° 0 mm 3 mps 752 mmHg 83%
    07:00 +16°C° 0 mm 3 mps 753 mmHg 83%
    08:00 +17°C° 0.1 mm 3 mps 753 mmHg 81%
    09:00 +18°C° 0.1 mm 3 mps 753 mmHg 80%
    10:00 +19°C° 0.1 mm 3 mps 753 mmHg 78%
    11:00 +20°C° 0 mm 3 mps 753 mmHg 73%
    12:00 +21°C° 0 mm 3 mps 752 mmHg 68%
    13:00 +22°C° 0 mm 3 mps 752 mmHg 63%
    14:00 +22°C° 0 mm 3 mps 751 mmHg 64%
    15:00 +22°C° 0 mm 3 mps 751 mmHg 65%
    16:00 +22°C° 0 mm 3 mps 751 mmHg 66%
    17:00 +20°C° 0 mm 2 mps 751 mmHg 74%
    18:00 +18°C° 0 mm 2 mps 751 mmHg 83%
    19:00 +17°C° 0 mm 2 mps 752 mmHg 91%
    20:00 +17°C° 0 mm 2 mps 752 mmHg 92%
    21:00 +17°C° 0 mm 2 mps 752 mmHg 92%
    22:00 +16°C° 0 mm 2 mps 753 mmHg 92%
    23:00 +16°C° 0 mm 2 mps 752 mmHg 93%
    Show more